Tracking 29528 objects as of 14-Sep-2024
HD Live streaming from Space Station
objects crossing your sky now

COSMOS 1867 COOLANT

Track COSMOS 1867 COOLANT now!
10-day predictions


NORAD ID: 43326
Int'l Code: 1987-060AT
Perigee: 773.1 km
Apogee: 803.2 km
Inclination: 65.0 °
Period: 100.5 minutes
Semi major axis: 7159 km
RCS: Unknown
Launch date: July 10, 1987
Source: Commonwealth of Independent States (former USSR) (CIS)
Launch site: TYURATAM MISSILE AND SPACE COMPLEX (TTMTR)

Note: This is SATELLITE DEBRIS
Your satellite tracking list
Your tracking list is empty




NASA's NSSDC Master Catalog

Two Line Element Set (TLE):
1 43326U 87060AT  24257.58201856  .00003041  00000-0  11376-2 0  9992
2 43326  65.0130  14.8426 0021036 263.7776  96.0913 14.33201750365255
Source of the keplerian elements: AFSPC